Погода в Уцуномии

Япония     36°33′37″N   139°52′51″E
темп.,
°C
ветер,
м/с
пор.,
м/с
влажн.,
%
обл.,
%
осадки,
мм/ч
давл.,
гПа
погр.,
м
16 мая, вс
вс1600:00+18ююв247376 0.0 1018253
03:00+17ююв2578100 0.0 1016290
06:00+18ю3972100 0.0 1016865
09:00+22ю5947100 0.0 10151388
12:00+24ююз7940100 0.0 10141577
15:00+21ююз686196 0.1 10131117
18:00+20ю5976100 0.2 1012987
21:00+19ююз41090100 0.4 1011909
17 мая, пн
пн1700:00+19ююз31096100 0.5 1008940
03:00+19ююз3993100 0.6 1005544
06:00+19ююз3986100 0.0 1004434
09:00+20ююз3873100 0.0 1003391
12:00+24ююз5871100 0.0 1002554
15:00+28ююз5757100 0.0 1000747
18:00+25ююз367383 0.0 1002459
21:00+23в2382100 0.0 100382
18 мая, вт
вт1800:00+21ссв2585100 0.0 1004178
03:00+21св2480100 0.1 1005242
06:00+20всв2483100 0.2 1008256
09:00+20вюв2284100 0.4 1010414
12:00+18вюв3491100 0.6 1011366
15:00+16вюв3691100 1.5 1012371
18:00+16в2490100 1.1 1013286
21:00+15в1391100 1.8 1014211
19 мая, ср
ср1900:00+15в1191100 0.1 1014123
03:00+15всв1291100 0.1 1013106
06:00+16всв1191100 0.1 1014112
09:00+20ю1174100 0.1 1014570
12:00+19ю1184100 0.8 1013436
15:00+22ю2370100 0.8 1012890
18:00+20юв2379100 0.0 1013388
21:00+19в1283100 0.0 1015210
20 мая, чт
чт2000:00+18вюв0086100 0.1 1015108
03:00+17в119068 0.2 101647
06:00+17в1292100 0.2 1017130
09:00+19вюв2284100 0.3 1018470
12:00+21юв236799 0.1 1018940
15:00+23юв4456100 0.1 10161431
18:00+19вюв4776100 0.2 1016480
21:00+17в2593100 1.6 1017319